65992 UWGG-UUMU

Flight info

Callsign 65992
Flight time 0h 44m
Altitude 31000
Route LARNO P985 OSPOM T787 URAGO DCT KUFAT DCT KORFI DCT UUMU
Aircraft T134/M-SDE3GHIJ2J3J5M1RVWXYZ/LB2D1

Departure

Time 2026-05-08 15:24
Airport Nizhny Novgorod / Strigino International Airport (UWGG)

Arrival

Time 2026-05-08 16:08
Airport Chkalovskiy Air Base (UUMU)
Time Latitude Longitude Altitude Speed Heading
2026-05-08 15:04 56.22854 43.79202 258 ft 0 kts 282°
2026-05-08 15:17 56.22855 43.79200 258 ft 1 kts 282°
2026-05-08 15:17 56.22857 43.79174 257 ft 3 kts 281°
2026-05-08 15:18 56.22852 43.79102 255 ft 8 kts 211°
2026-05-08 15:18 56.22803 43.79111 255 ft 7 kts 182°
2026-05-08 15:18 56.22745 43.79086 255 ft 10 kts 195°
2026-05-08 15:18 56.22683 43.79059 254 ft 9 kts 191°
2026-05-08 15:19 56.22652 43.79011 253 ft 4 kts 287°
2026-05-08 15:19 56.22657 43.78979 253 ft 1 kts 288°
2026-05-08 15:19 56.22664 43.78944 253 ft 4 kts 284°
2026-05-08 15:19 56.22664 43.78932 253 ft 4 kts 256°
2026-05-08 15:20 56.22647 43.78901 253 ft 9 kts 211°
2026-05-08 15:20 56.22547 43.78874 253 ft 17 kts 190°
2026-05-08 15:21 56.22446 43.78833 253 ft 11 kts 212°
2026-05-08 15:21 56.22362 43.78783 252 ft 13 kts 188°
2026-05-08 15:21 56.22268 43.78747 253 ft 12 kts 189°
2026-05-08 15:21 56.22208 43.78734 253 ft 0 kts 186°
2026-05-08 15:22 56.22133 43.78699 253 ft 22 kts 192°
2026-05-08 15:22 56.21963 43.78636 253 ft 25 kts 192°
2026-05-08 15:22 56.21922 43.78465 253 ft 19 kts 280°
2026-05-08 15:22 56.21964 43.78226 251 ft 16 kts 342°
2026-05-08 15:23 56.22032 43.78228 251 ft 7 kts 11°
2026-05-08 15:23 56.22072 43.78242 251 ft 0 kts 12°
2026-05-08 15:23 56.22098 43.78252 251 ft 26 kts 12°
2026-05-08 15:24 56.22562 43.78424 251 ft 106 kts 11°
2026-05-08 15:24 56.23492 43.78767 304 ft 161 kts 12°
2026-05-08 15:24 56.24609 43.79113 1000 ft 166 kts
2026-05-08 15:24 56.25764 43.79187 1489 ft 192 kts
2026-05-08 15:25 56.27263 43.79319 1797 ft 225 kts
2026-05-08 15:25 56.28512 43.80258 3354 ft 186 kts 42°
2026-05-08 15:25 56.29246 43.82083 3970 ft 197 kts 69°
2026-05-08 15:25 56.29487 43.84811 3913 ft 244 kts 95°
2026-05-08 15:26 56.28969 43.87709 4658 ft 247 kts 124°
2026-05-08 15:26 56.27941 43.89439 6058 ft 175 kts 155°
2026-05-08 15:26 56.26725 43.90076 6081 ft 213 kts 169°
2026-05-08 15:26 56.25122 43.90103 6366 ft 237 kts 197°
2026-05-08 15:27 56.23851 43.88803 7483 ft 204 kts 218°
2026-05-08 15:27 56.22670 43.87020 7171 ft 242 kts 225°
2026-05-08 15:27 56.21625 43.84524 7073 ft 265 kts 232°
2026-05-08 15:27 56.20262 43.82124 7136 ft 279 kts 224°
2026-05-08 15:28 56.18882 43.79667 7443 ft 286 kts 221°
2026-05-08 15:28 56.17422 43.77317 8302 ft 285 kts 224°
2026-05-08 15:28 56.15967 43.74910 9131 ft 286 kts 221°
2026-05-08 15:28 56.14518 43.72520 9950 ft 287 kts 223°
2026-05-08 15:29 56.13051 43.70154 10766 ft 288 kts 223°
2026-05-08 15:29 56.11581 43.67723 11586 ft 288 kts 222°
2026-05-08 15:29 56.10115 43.65345 12389 ft 288 kts 223°
2026-05-08 15:29 56.08641 43.62946 13189 ft 289 kts 222°
2026-05-08 15:30 56.07159 43.60525 13966 ft 289 kts 223°
2026-05-08 15:30 56.05669 43.58111 14708 ft 291 kts 223°
2026-05-08 15:30 56.04222 43.55755 15427 ft 292 kts 223°
2026-05-08 15:30 56.02741 43.53352 16155 ft 293 kts 223°
2026-05-08 15:31 56.01229 43.50903 16891 ft 293 kts 223°
2026-05-08 15:31 55.99737 43.48486 17608 ft 294 kts 223°
2026-05-08 15:31 55.98225 43.46040 18322 ft 294 kts 223°
2026-05-08 15:31 55.96735 43.43633 19015 ft 294 kts 223°
2026-05-08 15:32 55.95224 43.41195 19707 ft 294 kts 223°
2026-05-08 15:32 55.93711 43.38755 20388 ft 293 kts 223°
2026-05-08 15:32 55.92217 43.36350 21046 ft 293 kts 223°
2026-05-08 15:32 55.90712 43.33929 21698 ft 292 kts 222°
2026-05-08 15:33 55.89208 43.31511 22338 ft 292 kts 222°
2026-05-08 15:33 55.87720 43.29123 22958 ft 291 kts 222°
2026-05-08 15:33 55.86218 43.26715 23568 ft 291 kts 222°
2026-05-08 15:33 55.84722 43.24317 24162 ft 290 kts 222°
2026-05-08 15:34 55.83234 43.21931 24739 ft 290 kts 222°
2026-05-08 15:34 55.81763 43.19580 25295 ft 289 kts 222°
2026-05-08 15:34 55.80284 43.17179 25841 ft 288 kts 228°
2026-05-08 15:34 55.79213 43.14247 26358 ft 286 kts 250°
2026-05-08 15:35 55.78710 43.10851 26865 ft 285 kts 257°
2026-05-08 15:35 55.78225 43.07477 27354 ft 284 kts 255°
2026-05-08 15:35 55.77726 43.04059 27838 ft 284 kts 255°
2026-05-08 15:35 55.77224 43.00706 28301 ft 284 kts 255°
2026-05-08 15:36 55.76718 42.97358 28752 ft 283 kts 255°
2026-05-08 15:36 55.76210 42.94006 29179 ft 280 kts 255°
2026-05-08 15:36 55.75703 42.90677 29579 ft 278 kts 255°
2026-05-08 15:36 55.75209 42.87437 29945 ft 276 kts 255°
2026-05-08 15:37 55.74706 42.84147 30297 ft 274 kts 255°
2026-05-08 15:37 55.74209 42.80904 30625 ft 273 kts 255°
2026-05-08 15:37 55.73715 42.77691 30924 ft 272 kts 255°
2026-05-08 15:37 55.73206 42.74386 30976 ft 282 kts 255°
2026-05-08 15:38 55.72679 42.70969 30989 ft 294 kts 255°
2026-05-08 15:38 55.72118 42.67341 30990 ft 306 kts 255°
2026-05-08 15:38 55.71544 42.63632 30990 ft 318 kts 255°
2026-05-08 15:38 55.70941 42.59749 30989 ft 331 kts 255°
2026-05-08 15:39 55.70320 42.55757 30988 ft 343 kts 255°
2026-05-08 15:39 55.69670 42.51581 30988 ft 355 kts 255°
2026-05-08 15:39 55.69006 42.47327 30987 ft 367 kts 255°
2026-05-08 15:39 55.68318 42.42938 30986 ft 378 kts 255°
2026-05-08 15:40 55.66875 42.33762 30984 ft 397 kts 255°
2026-05-08 15:40 55.65348 42.24094 30983 ft 414 kts 255°
2026-05-08 15:41 55.63763 42.14124 30982 ft 427 kts 255°
2026-05-08 15:41 55.62130 42.03901 30980 ft 438 kts 255°
2026-05-08 15:42 55.60554 41.94100 30978 ft 446 kts 255°
2026-05-08 15:42 55.58853 41.83439 30974 ft 453 kts 258°
2026-05-08 15:43 55.58522 41.77913 30991 ft 454 kts 271°
2026-05-08 15:43 55.58536 41.72293 30978 ft 457 kts 268°
2026-05-08 15:43 55.58392 41.61121 30976 ft 460 kts 269°
2026-05-08 15:44 55.58230 41.49867 30976 ft 459 kts 270°
2026-05-08 15:44 55.58051 41.38835 30971 ft 437 kts 267°
2026-05-08 15:45 55.57963 41.33561 30966 ft 423 kts 266°
2026-05-08 15:45 55.57874 41.28423 30967 ft 411 kts 268°
2026-05-08 15:45 55.57694 41.18557 30969 ft 393 kts 268°
2026-05-08 15:46 55.57521 41.09152 30970 ft 379 kts 268°
2026-05-08 15:46 55.57345 41.00045 30971 ft 368 kts 268°
2026-05-08 15:47 55.57254 40.95473 30972 ft 362 kts 268°
2026-05-08 15:47 55.57074 40.86715 30972 ft 353 kts 268°
2026-05-08 15:48 55.56800 40.73950 30972 ft 341 kts 268°
2026-05-08 15:49 55.56615 40.65721 30972 ft 333 kts 268°
2026-05-08 15:49 55.56428 40.57648 30972 ft 326 kts 268°
2026-05-08 15:50 55.56242 40.49813 30972 ft 318 kts 268°
2026-05-08 15:50 55.56053 40.42082 30972 ft 311 kts 268°
2026-05-08 15:51 55.55864 40.34543 30972 ft 304 kts 267°
2026-05-08 15:51 55.55771 40.30882 30972 ft 300 kts 267°
2026-05-08 15:51 55.55677 40.27192 30916 ft 299 kts 267°
2026-05-08 15:51 55.55579 40.23436 30505 ft 310 kts 267°
2026-05-08 15:52 55.55477 40.19590 30155 ft 319 kts 267°
2026-05-08 15:52 55.55372 40.15640 29842 ft 326 kts 267°
2026-05-08 15:52 55.55264 40.11637 29561 ft 332 kts 267°
2026-05-08 15:52 55.55153 40.07579 29306 ft 337 kts 267°
2026-05-08 15:53 55.55038 40.03415 29068 ft 341 kts 267°
2026-05-08 15:53 55.54922 39.99200 28847 ft 345 kts 268°
2026-05-08 15:53 55.54792 39.94979 28639 ft 346 kts 264°
2026-05-08 15:53 55.54619 39.90720 28412 ft 351 kts 266°
2026-05-08 15:54 55.54454 39.86375 28050 ft 359 kts 266°
2026-05-08 15:54 55.54293 39.81986 27719 ft 365 kts 266°
2026-05-08 15:54 55.54126 39.77516 27406 ft 370 kts 266°
2026-05-08 15:54 55.53955 39.72943 27013 ft 376 kts 266°
2026-05-08 15:55 55.53780 39.68316 26604 ft 382 kts 266°
2026-05-08 15:55 55.53417 39.58866 25348 ft 394 kts 266°
2026-05-08 15:55 55.53228 39.54043 24571 ft 399 kts 266°
2026-05-08 15:56 55.53037 39.49186 23807 ft 401 kts 266°
2026-05-08 15:56 55.52843 39.44302 23052 ft 402 kts 266°
2026-05-08 15:56 55.52643 39.39328 22178 ft 405 kts 266°
2026-05-08 15:56 55.52443 39.34407 21233 ft 408 kts 265°
2026-05-08 15:57 55.52240 39.29449 20295 ft 409 kts 265°
2026-05-08 15:57 55.52033 39.24445 19358 ft 408 kts 265°
2026-05-08 15:57 55.51829 39.19542 18447 ft 407 kts 265°
2026-05-08 15:57 55.51621 39.14624 17537 ft 404 kts 265°
2026-05-08 15:58 55.51413 39.09724 16632 ft 401 kts 265°
2026-05-08 15:58 55.51203 39.04859 15725 ft 395 kts 265°
2026-05-08 15:58 55.50997 39.00098 14488 ft 392 kts 265°
2026-05-08 15:58 55.50788 38.95348 13267 ft 388 kts 265°
2026-05-08 15:59 55.50583 38.90710 12124 ft 381 kts 265°
2026-05-08 15:59 55.50503 38.86162 10714 ft 382 kts 273°
2026-05-08 15:59 55.51033 38.81581 8310 ft 402 kts 289°
2026-05-08 15:59 55.52261 38.77304 6789 ft 391 kts 306°
2026-05-08 16:00 55.54060 38.73984 6303 ft 357 kts 320°
2026-05-08 16:00 55.55891 38.71287 5866 ft 331 kts 318°
2026-05-08 16:00 55.57534 38.68705 5471 ft 311 kts 318°
2026-05-08 16:00 55.59108 38.66255 5382 ft 284 kts 319°
2026-05-08 16:01 55.60526 38.64056 5381 ft 261 kts 319°
2026-05-08 16:01 55.61840 38.62027 5382 ft 240 kts 319°
2026-05-08 16:01 55.63041 38.60174 5382 ft 221 kts 318°
2026-05-08 16:01 55.64104 38.58409 5381 ft 202 kts 314°
2026-05-08 16:02 55.65051 38.56598 5004 ft 214 kts 312°
2026-05-08 16:02 55.66106 38.54510 4172 ft 246 kts 310°
2026-05-08 16:02 55.67262 38.52102 3451 ft 267 kts 309°
2026-05-08 16:02 55.68435 38.49484 2828 ft 279 kts 307°
2026-05-08 16:03 55.69573 38.46719 2614 ft 273 kts 305°
2026-05-08 16:03 55.70602 38.44011 2642 ft 260 kts 303°
2026-05-08 16:03 55.71551 38.41317 2645 ft 250 kts 302°
2026-05-08 16:03 55.72465 38.38827 2643 ft 235 kts 304°
2026-05-08 16:04 55.73393 38.36535 2629 ft 219 kts 309°
2026-05-08 16:04 55.74339 38.34544 2487 ft 210 kts 309°
2026-05-08 16:04 55.75270 38.32555 2252 ft 207 kts 309°
2026-05-08 16:04 55.76184 38.30604 2006 ft 205 kts 309°
2026-05-08 16:05 55.77072 38.28707 1909 ft 193 kts 309°
2026-05-08 16:05 55.77922 38.26993 1949 ft 181 kts 314°
2026-05-08 16:05 55.78829 38.25407 1986 ft 187 kts 315°
2026-05-08 16:05 55.79848 38.23625 2171 ft 216 kts 315°
2026-05-08 16:06 55.80982 38.21626 2398 ft 254 kts 314°
2026-05-08 16:06 55.82279 38.19153 2016 ft 284 kts 310°
2026-05-08 16:06 55.83459 38.16638 1752 ft 246 kts 309°
2026-05-08 16:06 55.84405 38.14485 1722 ft 203 kts 303°
2026-05-08 16:07 55.85177 38.12463 1347 ft 189 kts 306°
2026-05-08 16:07 55.85951 38.10718 1022 ft 176 kts 308°
2026-05-08 16:07 55.86706 38.09113 746 ft 163 kts 310°
2026-05-08 16:07 55.87425 38.07617 528 ft 156 kts 310°
2026-05-08 16:08 55.88090 38.06212 507 ft 132 kts 310°
2026-05-08 16:08 55.88606 38.05125 507 ft 108 kts 310°
2026-05-08 16:08 55.88938 38.04417 507 ft 83 kts 314°
2026-05-08 16:08 55.88982 38.04327 507 ft 17 kts 302°
2026-05-08 16:09 55.88924 38.04235 507 ft 16 kts 168°
2026-05-08 16:09 55.88878 38.04239 507 ft 7 kts 191°
2026-05-08 16:09 55.88814 38.04216 507 ft 10 kts 191°
2026-05-08 16:09 55.88747 38.04129 507 ft 15 kts 259°
2026-05-08 16:10 55.88798 38.03937 507 ft 20 kts 309°
2026-05-08 16:10 55.88780 38.03764 507 ft 12 kts 212°
2026-05-08 16:10 55.88692 38.03729 507 ft 12 kts 191°
2026-05-08 16:10 55.88635 38.03635 507 ft 12 kts 279°
2026-05-08 16:11 55.88648 38.03463 507 ft 15 kts 277°
2026-05-08 16:11 55.88613 38.03329 507 ft 9 kts 193°
2026-05-08 16:11 55.88539 38.03291 507 ft 12 kts 207°
2026-05-08 16:11 55.88454 38.03205 507 ft 15 kts 201°
2026-05-08 16:12 55.88342 38.03164 507 ft 5 kts 188°
2026-05-08 16:12 55.88340 38.03164 507 ft 0 kts 188°